Time,TemperatureF,DewpointF,PressureIn,WindDirection,WindDirectionDegrees,WindSpeedMPH,WindSpeedGustMPH,Humidity,HourlyPrecipIn,Conditions,Clouds,dailyrainin,SoftwareType,DateUTC
2013-04-16 00:01:00,34.0,26.0,-100.00,West,270,0.0,0.0,73,-99.99,,,-99.99,,2013-04-16 05:01:00,
2013-04-16 00:22:00,34.0,26.0,-100.00,West,270,0.0,0.0,73,-99.99,,,-99.99,,2013-04-16 05:22:00,
2013-04-16 00:32:00,34.0,26.0,-100.00,West,270,0.0,0.0,73,-99.99,,,-99.99,,2013-04-16 05:32:00,
2013-04-16 00:42:00,34.0,26.0,-100.00,West,270,0.0,0.0,73,-99.99,,,-99.99,,2013-04-16 05:42:00,
2013-04-16 00:52:00,34.0,26.0,-100.00,West,270,0.0,0.0,73,-99.99,,,-99.99,,2013-04-16 05:52:00,
2013-04-16 01:01:00,34.0,27.0,-100.00,West,260,0.0,0.0,76,-99.99,,,-99.99,,2013-04-16 06:01:00,
2013-04-16 01:22:00,34.0,27.0,-100.00,West,260,0.0,0.0,76,-99.99,,,-99.99,,2013-04-16 06:22:00,
2013-04-16 01:32:00,34.0,27.0,-100.00,West,260,0.0,0.0,76,-99.99,,,-99.99,,2013-04-16 06:32:00,
2013-04-16 01:42:00,34.0,27.0,-100.00,West,260,0.0,0.0,76,-99.99,,,-99.99,,2013-04-16 06:42:00,
2013-04-16 01:52:00,34.0,27.0,-100.00,West,260,0.0,0.0,76,-99.99,,,-99.99,,2013-04-16 06:52:00,
2013-04-16 02:01:00,33.0,28.0,-100.00,West,270,0.0,0.0,80,-99.99,,,-99.99,,2013-04-16 07:01:00,
2013-04-16 02:22:00,33.0,28.0,-100.00,West,270,0.0,0.0,80,-99.99,,,-99.99,,2013-04-16 07:22:00,
2013-04-16 02:32:00,33.0,28.0,-100.00,West,270,0.0,0.0,80,-99.99,,,-99.99,,2013-04-16 07:32:00,
2013-04-16 02:42:00,33.0,28.0,-100.00,West,270,0.0,0.0,80,-99.99,,,-99.99,,2013-04-16 07:42:00,
2013-04-16 02:53:00,33.0,28.0,-100.00,West,270,0.0,0.0,80,-99.99,,,-99.99,,2013-04-16 07:53:00,
2013-04-16 03:01:00,33.0,28.0,-100.00,West,280,0.0,0.0,81,-99.99,,,-99.99,,2013-04-16 08:01:00,
2013-04-16 03:22:00,33.0,28.0,-100.00,West,280,0.0,0.0,81,-99.99,,,-99.99,,2013-04-16 08:22:00,
2013-04-16 03:32:00,33.0,28.0,-100.00,West,280,0.0,0.0,81,-99.99,,,-99.99,,2013-04-16 08:32:00,
2013-04-16 03:42:00,33.0,28.0,-100.00,West,280,0.0,0.0,81,-99.99,,,-99.99,,2013-04-16 08:42:00,
2013-04-16 03:52:00,33.0,28.0,-100.00,West,280,0.0,0.0,81,-99.99,,,-99.99,,2013-04-16 08:52:00,
2013-04-16 04:01:00,33.0,29.0,-100.00,West,275,0.0,0.0,83,-99.99,,,-99.99,,2013-04-16 09:01:00,
2013-04-16 04:22:00,33.0,29.0,-100.00,West,275,0.0,0.0,83,-99.99,,,-99.99,,2013-04-16 09:22:00,
2013-04-16 04:33:00,33.0,29.0,-100.00,West,275,0.0,0.0,83,-99.99,,,-99.99,,2013-04-16 09:33:00,
2013-04-16 04:43:00,33.0,29.0,-100.00,West,275,0.0,0.0,83,-99.99,,,-99.99,,2013-04-16 09:43:00,
2013-04-16 04:53:00,33.0,29.0,-100.00,West,275,0.0,0.0,83,-99.99,,,-99.99,,2013-04-16 09:53:00,
2013-04-16 05:01:00,33.0,28.0,-100.00,West,275,0.0,0.0,83,-99.99,,,-99.99,,2013-04-16 10:01:00,
2013-04-16 05:23:00,33.0,28.0,-100.00,West,275,0.0,0.0,83,-99.99,,,-99.99,,2013-04-16 10:23:00,
2013-04-16 05:33:00,33.0,28.0,-100.00,West,275,0.0,0.0,83,-99.99,,,-99.99,,2013-04-16 10:33:00,
2013-04-16 05:43:00,33.0,28.0,-100.00,West,275,0.0,0.0,83,-99.99,,,-99.99,,2013-04-16 10:43:00,
2013-04-16 05:53:00,33.0,28.0,-100.00,West,275,0.0,0.0,83,-99.99,,,-99.99,,2013-04-16 10:53:00,
2013-04-16 06:01:00,33.0,29.0,-100.00,West,270,0.0,0.0,84,-99.99,,,-99.99,,2013-04-16 11:01:00,
2013-04-16 06:22:00,33.0,29.0,-100.00,West,270,0.0,0.0,84,-99.99,,,-99.99,,2013-04-16 11:22:00,
2013-04-16 06:32:00,33.0,29.0,-100.00,West,270,0.0,0.0,84,-99.99,,,-99.99,,2013-04-16 11:32:00,
2013-04-16 06:42:00,33.0,29.0,-100.00,West,270,0.0,0.0,84,-99.99,,,-99.99,,2013-04-16 11:42:00,
2013-04-16 06:53:00,33.0,29.0,-100.00,West,270,0.0,0.0,84,-99.99,,,-99.99,,2013-04-16 11:53:00,
2013-04-16 07:01:00,33.0,29.0,-100.00,West,275,0.0,0.0,85,-99.99,,,-99.99,,2013-04-16 12:01:00,
2013-04-16 07:22:00,33.0,29.0,-100.00,West,275,0.0,0.0,85,-99.99,,,-99.99,,2013-04-16 12:22:00,
2013-04-16 07:32:00,33.0,29.0,-100.00,West,275,0.0,0.0,85,-99.99,,,-99.99,,2013-04-16 12:32:00,
2013-04-16 07:42:00,33.0,29.0,-100.00,West,275,0.0,0.0,85,-99.99,,,-99.99,,2013-04-16 12:42:00,
2013-04-16 07:52:00,33.0,29.0,-100.00,West,275,0.0,0.0,85,-99.99,,,-99.99,,2013-04-16 12:52:00,
2013-04-16 08:01:00,33.0,29.0,-100.00,West,270,0.0,0.0,86,-99.99,,,-99.99,,2013-04-16 13:01:00,
2013-04-16 08:22:00,33.0,29.0,-100.00,West,270,0.0,0.0,86,-99.99,,,-99.99,,2013-04-16 13:22:00,
2013-04-16 08:32:00,33.0,29.0,-100.00,West,270,0.0,0.0,86,-99.99,,,-99.99,,2013-04-16 13:32:00,
2013-04-16 08:42:00,33.0,29.0,-100.00,West,270,0.0,0.0,86,-99.99,,,-99.99,,2013-04-16 13:42:00,
2013-04-16 08:52:00,33.0,29.0,-100.00,West,270,0.0,0.0,86,-99.99,,,-99.99,,2013-04-16 13:52:00,
2013-04-16 09:01:00,34.0,29.0,-100.00,West,275,0.0,0.0,82,-99.99,,,-99.99,,2013-04-16 14:01:00,
2013-04-16 09:22:00,34.0,29.0,-100.00,West,275,0.0,0.0,82,-99.99,,,-99.99,,2013-04-16 14:22:00,
2013-04-16 09:32:00,34.0,29.0,-100.00,West,275,0.0,0.0,82,-99.99,,,-99.99,,2013-04-16 14:32:00,
2013-04-16 09:42:00,34.0,29.0,-100.00,West,275,0.0,0.0,82,-99.99,,,-99.99,,2013-04-16 14:42:00,
2013-04-16 09:52:00,34.0,29.0,-100.00,West,275,0.0,0.0,82,-99.99,,,-99.99,,2013-04-16 14:52:00,
2013-04-16 12:01:00,37.0,28.0,-100.00,West,280,0.0,0.0,70,-99.99,,,-99.99,,2013-04-16 17:01:00,
2013-04-16 12:22:00,37.0,28.0,-100.00,West,280,0.0,0.0,70,-99.99,,,-99.99,,2013-04-16 17:22:00,
2013-04-16 12:33:00,37.0,28.0,-100.00,West,280,0.0,0.0,70,-99.99,,,-99.99,,2013-04-16 17:33:00,
2013-04-16 12:43:00,37.0,28.0,-100.00,West,280,0.0,0.0,70,-99.99,,,-99.99,,2013-04-16 17:43:00,
2013-04-16 12:53:00,37.0,28.0,-100.00,West,280,0.0,0.0,70,-99.99,,,-99.99,,2013-04-16 17:53:00,
2013-04-16 13:01:00,39.0,29.0,-100.00,West,280,0.0,0.0,67,-99.99,,,-99.99,,2013-04-16 18:01:00,
2013-04-16 13:22:00,39.0,29.0,-100.00,West,280,0.0,0.0,67,-99.99,,,-99.99,,2013-04-16 18:22:00,
2013-04-16 13:32:00,39.0,29.0,-100.00,West,280,0.0,0.0,67,-99.99,,,-99.99,,2013-04-16 18:32:00,
2013-04-16 13:43:00,39.0,29.0,-100.00,West,280,0.0,0.0,67,-99.99,,,-99.99,,2013-04-16 18:43:00,
2013-04-16 13:52:00,39.0,29.0,-100.00,West,280,0.0,0.0,67,-99.99,,,-99.99,,2013-04-16 18:52:00,
2013-04-16 14:01:00,39.0,28.0,-100.00,WSW,250,0.0,0.0,64,-99.99,,,-99.99,,2013-04-16 19:01:00,
2013-04-16 14:22:00,39.0,28.0,-100.00,WSW,250,0.0,0.0,64,-99.99,,,-99.99,,2013-04-16 19:22:00,
2013-04-16 14:32:00,39.0,28.0,-100.00,WSW,250,0.0,0.0,64,-99.99,,,-99.99,,2013-04-16 19:32:00,
2013-04-16 14:42:00,39.0,28.0,-100.00,WSW,250,0.0,0.0,64,-99.99,,,-99.99,,2013-04-16 19:42:00,
2013-04-16 14:52:00,39.0,28.0,-100.00,WSW,250,0.0,0.0,64,-99.99,,,-99.99,,2013-04-16 19:52:00,
2013-04-16 15:01:00,41.0,29.0,-100.00,WSW,250,0.0,0.0,61,-99.99,,,-99.99,,2013-04-16 20:01:00,
2013-04-16 15:22:00,41.0,29.0,-100.00,WSW,250,0.0,0.0,61,-99.99,,,-99.99,,2013-04-16 20:22:00,
2013-04-16 15:32:00,41.0,29.0,-100.00,WSW,250,0.0,0.0,61,-99.99,,,-99.99,,2013-04-16 20:32:00,
2013-04-16 15:42:00,41.0,29.0,-100.00,WSW,250,0.0,0.0,61,-99.99,,,-99.99,,2013-04-16 20:42:00,
2013-04-16 15:52:00,41.0,29.0,-100.00,WSW,250,0.0,0.0,61,-99.99,,,-99.99,,2013-04-16 20:52:00,
2013-04-16 17:01:00,42.0,27.0,-100.00,WSW,250,0.0,0.0,56,-99.99,,,-99.99,,2013-04-16 22:01:00,
2013-04-16 17:22:00,42.0,27.0,-100.00,WSW,250,0.0,0.0,56,-99.99,,,-99.99,,2013-04-16 22:22:00,
2013-04-16 17:33:00,42.0,27.0,-100.00,WSW,250,0.0,0.0,56,-99.99,,,-99.99,,2013-04-16 22:33:00,
2013-04-16 17:43:00,42.0,27.0,-100.00,WSW,250,0.0,0.0,56,-99.99,,,-99.99,,2013-04-16 22:43:00,
2013-04-16 17:52:00,42.0,27.0,-100.00,WSW,250,0.0,0.0,56,-99.99,,,-99.99,,2013-04-16 22:52:00,
2013-04-16 18:01:00,42.0,27.0,-100.00,West,270,0.0,0.0,55,-99.99,,,-99.99,,2013-04-16 23:01:00,
2013-04-16 18:22:00,42.0,27.0,-100.00,West,270,0.0,0.0,55,-99.99,,,-99.99,,2013-04-16 23:22:00,
2013-04-16 18:32:00,42.0,27.0,-100.00,West,270,0.0,0.0,55,-99.99,,,-99.99,,2013-04-16 23:32:00,
2013-04-16 18:43:00,42.0,27.0,-100.00,West,270,0.0,0.0,55,-99.99,,,-99.99,,2013-04-16 23:43:00,
2013-04-16 18:52:00,42.0,27.0,-100.00,West,270,0.0,0.0,55,-99.99,,,-99.99,,2013-04-16 23:52:00,
2013-04-16 19:01:00,40.0,27.0,-100.00,WSW,255,0.0,0.0,58,-99.99,,,-99.99,,2013-04-17 00:01:00,
2013-04-16 19:22:00,40.0,27.0,-100.00,WSW,255,0.0,0.0,58,-99.99,,,-99.99,,2013-04-17 00:22:00,
2013-04-16 19:32:00,40.0,27.0,-100.00,WSW,255,0.0,0.0,58,-99.99,,,-99.99,,2013-04-17 00:32:00,
2013-04-16 19:42:00,40.0,27.0,-100.00,WSW,255,0.0,0.0,58,-99.99,,,-99.99,,2013-04-17 00:42:00,
2013-04-16 19:52:00,40.0,27.0,-100.00,WSW,255,0.0,0.0,58,-99.99,,,-99.99,,2013-04-17 00:52:00,
2013-04-16 20:01:00,37.0,27.0,-100.00,West,270,0.0,0.0,68,-99.99,,,-99.99,,2013-04-17 01:01:00,
2013-04-16 20:22:00,37.0,27.0,-100.00,West,270,0.0,0.0,68,-99.99,,,-99.99,,2013-04-17 01:22:00,
2013-04-16 20:32:00,37.0,27.0,-100.00,West,270,0.0,0.0,68,-99.99,,,-99.99,,2013-04-17 01:32:00,
2013-04-16 20:42:00,37.0,27.0,-100.00,West,270,0.0,0.0,68,-99.99,,,-99.99,,2013-04-17 01:42:00,
2013-04-16 20:52:00,37.0,27.0,-100.00,West,270,0.0,0.0,68,-99.99,,,-99.99,,2013-04-17 01:52:00,
2013-04-16 21:01:00,36.0,27.0,-100.00,WNW,290,0.0,0.0,70,-99.99,,,-99.99,,2013-04-17 02:01:00,
2013-04-16 21:22:00,36.0,27.0,-100.00,WNW,290,0.0,0.0,70,-99.99,,,-99.99,,2013-04-17 02:22:00,
2013-04-16 21:32:00,36.0,27.0,-100.00,WNW,290,0.0,0.0,70,-99.99,,,-99.99,,2013-04-17 02:32:00,
2013-04-16 21:42:00,36.0,27.0,-100.00,WNW,290,0.0,0.0,70,-99.99,,,-99.99,,2013-04-17 02:42:00,
2013-04-16 21:52:00,36.0,27.0,-100.00,WNW,290,0.0,0.0,70,-99.99,,,-99.99,,2013-04-17 02:52:00,
2013-04-16 22:01:00,35.0,28.0,-100.00,NW,315,0.0,0.0,74,-99.99,,,-99.99,,2013-04-17 03:01:00,
2013-04-16 22:22:00,35.0,28.0,-100.00,NW,315,0.0,0.0,74,-99.99,,,-99.99,,2013-04-17 03:22:00,
2013-04-16 22:33:00,35.0,28.0,-100.00,NW,315,0.0,0.0,74,-99.99,,,-99.99,,2013-04-17 03:33:00,
2013-04-16 22:42:00,35.0,28.0,-100.00,NW,315,0.0,0.0,74,-99.99,,,-99.99,,2013-04-17 03:42:00,
2013-04-16 22:53:00,35.0,28.0,-100.00,NW,315,0.0,0.0,74,-99.99,,,-99.99,,2013-04-17 03:53:00,
2013-04-16 23:01:00,33.0,27.0,-100.00,NNW,330,0.0,0.0,78,-99.99,,,-99.99,,2013-04-17 04:01:00,
2013-04-16 23:23:00,33.0,27.0,-100.00,NNW,330,0.0,0.0,78,-99.99,,,-99.99,,2013-04-17 04:23:00,
2013-04-16 23:33:00,33.0,27.0,-100.00,NNW,330,0.0,0.0,78,-99.99,,,-99.99,,2013-04-17 04:33:00,
2013-04-16 23:42:00,33.0,27.0,-100.00,NNW,330,0.0,0.0,78,-99.99,,,-99.99,,2013-04-17 04:42:00,
2013-04-16 23:52:00,33.0,27.0,-100.00,NNW,330,0.0,0.0,78,-99.99,,,-99.99,,2013-04-17 04:52:00,